Location: Csohesd
(46.2500°N, 22.6167°E)
Time: 06:15:06
(UTC+00:00)

Cosmos 2369 - Pass Details

Date: 21 October 2021
Orbit: 838 x 857 km, 71.0° (Epoch: 04 December)

Event Time Altitude Azimuth Distance (km) Brightness Sun altitude
Rises 15:54:53 0° 203° (SSW) 3,380 7.4 -4.6°
Reaches altitude 10° 15:57:18 10° 203° (SSW) 2,452 6.6 -5.0°
Maximum altitude 16:02:57 87° 117° (ESE) 852 3.8 -6.0°
Drops below altitude 10° 16:08:39 10° 27° (NNE) 2,480 5.8 -6.9°
Sets 16:11:07 0° 27° (NNE) 3,422 6.5 -7.4°
